Regional Weather Roundup
Issued by NWS

Current Version | Previous Version | Text Only | Print | Product List | Glossary On
Versions: 1 2 3 4 5 6 7 8 9 10 11 12 13 14 15 16 17 18 19 20 21 22 23 24 25 26 27
000
ASUS42 KKEY 282110
RWRKEY

FLORIDA REGIONAL WEATHER ROUNDUP FOR THE FLORIDA KEYS
NATIONAL WEATHER SERVICE KEY WEST FLORIDA
500 PM EDT THU APR 28 2016

...SOUTH FLORIDA AND THE KEYS...

CITY           SKY/WX    TMP DP  RH WIND       PRES   REMARKS
FORT MYERS     PTSUNNY   86  67  52 SW10      29.94F
SW REGIONAL AP SUNNY     85  68  56 SW14      29.94F
NAPLES         MOSUNNY   83  68  60 SW10      29.95F
MIAMI          PTSUNNY   84  68  58 SE9G20    29.95F
WEST KENDALL   PTSUNNY   83  68  60 SE12      29.95F
HOMESTEAD      MOSUNNY   84  69  59 SE10      29.95F
MARATHON       SUNNY     84  72  67 SE8       29.95F
BOCA CHICA NAS MOSUNNY   83  69  62 E8        29.94F
KEY WEST INTL  SUNNY     82  71  69 E8        29.95F

...INTERNATIONAL WEATHER...

CITY           SKY/WX    TMP DP  RH WIND       PRES   REMARKS
NASSAU BAHAMAS MOSUNNY   84  70  61 NE9       29.98F
CANCUN MEXICO  PTSUNNY   84  75  74 E17       29.87S HX  92
COZUMEL MEXICO PTSUNNY   84  75  74 SE12      29.85F HX  92

ADJACENT COASTAL WATERS...

STATION/POSITION TIME  SKY/WX   TEMP    WIND        PRES    WAVE
                                AIR SEA DIR/SP/G            HT/PER
                 (UTC)          (F)     (DEG/KT/KT) (MB)    (FT/S)
PULASKI SHOAL LI 2100            79     120/  6/  7 1014.2F
SAND KEY         2050            79     110/  7/  8 1014.5F
SOMBRERO KEY     NOT AVBL
LONG KEY         2100            81 82  140/  9/  9 1014.4F
MOLASSES REEF    2100            79 80  130/  8/  9 1014.8F
FOWEY ROCKS      NOT AVBL

$$




USA.gov is the U.S. government's official web portal to all federal, state and local government web resources and services.